• In Lithuania
  • List of Countries
  • For 7 days
  • Water Temperature
  • Satellite Maps
  • Weather Map
  • Weather Widgets
  • user-avatar
    Login

    Hourly Weather Bremen

    Today, 19 October, Thursday

    Time Temperature Precipitation Wind Pressure Humidity
    00:00 +12°C° 0 mm 2 mps 759 mmHg 92%
    01:00 +12°C° 0 mm 2 mps 759 mmHg 92%
    02:00 +12°C° 0 mm 2 mps 759 mmHg 92%
    03:00 +10°C° 0 mm 2 mps 759 mmHg 92%
    04:00 +10°C° 0 mm 2 mps 759 mmHg 92%
    05:00 +10°C° 0 mm 2 mps 759 mmHg 93%
    06:00 +10°C° 0 mm 2 mps 758 mmHg 93%
    07:00 +10°C° 0 mm 2 mps 758 mmHg 94%
    08:00 +13°C° 0 mm 2 mps 758 mmHg 89%
    09:00 +14°C° 0 mm 2 mps 759 mmHg 85%
    10:00 +16°C° 0 mm 2 mps 759 mmHg 80%
    11:00 +17°C° 0 mm 2 mps 758 mmHg 77%
    12:00 +18°C° 0 mm 2 mps 758 mmHg 73%
    13:00 +19°C° 0 mm 3 mps 758 mmHg 70%
    14:00 +19°C° 0 mm 2 mps 758 mmHg 72%
    15:00 +19°C° 0 mm 2 mps 757 mmHg 74%
    16:00 +19°C° 0 mm 2 mps 757 mmHg 76%
    17:00 +17°C° 0 mm 2 mps 757 mmHg 80%
    18:00 +16°C° 0 mm 3 mps 757 mmHg 84%
    19:00 +13°C° 0 mm 3 mps 757 mmHg 88%
    20:00 +13°C° 0 mm 3 mps 758 mmHg 89%
    21:00 +13°C° 0 mm 3 mps 758 mmHg 89%
    22:00 +13°C° 0 mm 3 mps 758 mmHg 90%
    23:00 +13°C° 0 mm 3 mps 758 mmHg 89%

    Tomorrow, 20 October, Friday

    Time Temperature Precipitation Wind Pressure Humidity
    00:00 +13°C° 0 mm 3 mps 758 mmHg 89%
    01:00 +13°C° 0 mm 3 mps 758 mmHg 88%
    02:00 +13°C° 0 mm 3 mps 757 mmHg 86%
    03:00 +13°C° 0 mm 3 mps 757 mmHg 84%
    04:00 +13°C° 0 mm 3 mps 757 mmHg 82%
    05:00 +13°C° 0 mm 3 mps 757 mmHg 79%
    06:00 +13°C° 0 mm 3 mps 757 mmHg 76%
    07:00 +14°C° 0 mm 4 mps 757 mmHg 73%
    08:00 +14°C° 0.4 mm 4 mps 757 mmHg 75%
    09:00 +14°C° 0.4 mm 5 mps 758 mmHg 78%
    10:00 +15°C° 0.4 mm 5 mps 758 mmHg 81%
    11:00 +15°C° 0.6 mm 5 mps 758 mmHg 83%
    12:00 +15°C° 0.6 mm 5 mps 758 mmHg 84%
    13:00 +15°C° 0.6 mm 5 mps 758 mmHg 86%
    14:00 +15°C° 0.4 mm 5 mps 758 mmHg 84%
    15:00 +15°C° 0.4 mm 4 mps 759 mmHg 82%
    16:00 +15°C° 0.4 mm 4 mps 759 mmHg 80%
    17:00 +13°C° 0 mm 4 mps 759 mmHg 82%
    18:00 +12°C° 0 mm 3 mps 759 mmHg 84%
    19:00 +11°C° 0 mm 3 mps 760 mmHg 86%
    20:00 +10°C° 0 mm 3 mps 760 mmHg 86%
    21:00 +10°C° 0 mm 3 mps 760 mmHg 87%
    22:00 +10°C° 0 mm 3 mps 761 mmHg 87%
    23:00 +9°C° 0 mm 3 mps 760 mmHg 88%

    Day after tomorrow, 21 October, Saturday

    Time Temperature Precipitation Wind Pressure Humidity
    00:00 +9°C° 0 mm 3 mps 760 mmHg 88%
    01:00 +8°C° 0 mm 3 mps 760 mmHg 89%
    02:00 +9°C° 0 mm 3 mps 760 mmHg 88%
    03:00 +9°C° 0 mm 3 mps 760 mmHg 86%
    04:00 +10°C° 0 mm 3 mps 760 mmHg 85%
    05:00 +10°C° 0 mm 4 mps 759 mmHg 84%
    06:00 +10°C° 0 mm 4 mps 759 mmHg 84%
    07:00 +10°C° 0 mm 4 mps 758 mmHg 83%
    08:00 +11°C° 0.2 mm 4 mps 758 mmHg 85%
    09:00 +12°C° 0.2 mm 4 mps 758 mmHg 86%
    10:00 +12°C° 0.2 mm 5 mps 758 mmHg 88%
    11:00 +13°C° 0.4 mm 5 mps 757 mmHg 88%
    12:00 +14°C° 0.4 mm 5 mps 757 mmHg 89%
    13:00 +15°C° 0.4 mm 5 mps 757 mmHg 89%
    14:00 +15°C° 0.1 mm 5 mps 757 mmHg 88%
    15:00 +15°C° 0.1 mm 5 mps 757 mmHg 86%
    16:00 +15°C° 0.1 mm 5 mps 757 mmHg 85%
    17:00 +14°C° 0.1 mm 5 mps 757 mmHg 86%
    18:00 +13°C° 0.1 mm 4 mps 757 mmHg 87%
    19:00 +12°C° 0.1 mm 4 mps 757 mmHg 88%
    20:00 +11°C° 0 mm 4 mps 757 mmHg 86%
    21:00 +10°C° 0 mm 5 mps 757 mmHg 84%
    22:00 +9°C° 0 mm 5 mps 757 mmHg 82%
    23:00 +9°C° 0 mm 5 mps 757 mmHg 82%

    22 October, Sunday

    Time Temperature Precipitation Wind Pressure Humidity
    00:00 +9°C° 0 mm 5 mps 757 mmHg 81%
    01:00 +9°C° 0 mm 5 mps 757 mmHg 80%
    02:00 +8°C° 0 mm 6 mps 757 mmHg 81%
    03:00 +8°C° 0 mm 6 mps 757 mmHg 81%
    04:00 +8°C° 0 mm 6 mps 757 mmHg 81%
    05:00 +8°C° 0 mm 6 mps 757 mmHg 81%
    06:00 +7°C° 0 mm 6 mps 757 mmHg 81%
    07:00 +7°C° 0 mm 6 mps 757 mmHg 82%
    08:00 +8°C° 0 mm 6 mps 757 mmHg 79%
    09:00 +9°C° 0 mm 7 mps 757 mmHg 77%
    10:00 +10°C° 0 mm 8 mps 757 mmHg 74%
    11:00 +10°C° 0 mm 8 mps 757 mmHg 73%
    12:00 +11°C° 0 mm 7 mps 757 mmHg 71%
    13:00 +11°C° 0 mm 7 mps 757 mmHg 70%
    14:00 +10°C° 0.1 mm 7 mps 758 mmHg 73%
    15:00 +10°C° 0.1 mm 7 mps 758 mmHg 75%
    16:00 +10°C° 0.1 mm 7 mps 758 mmHg 78%
    17:00 +9°C° 0.1 mm 6 mps 758 mmHg 81%
    18:00 +9°C° 0.1 mm 6 mps 758 mmHg 83%
    19:00 +8°C° 0.1 mm 6 mps 758 mmHg 85%
    20:00 +8°C° 0.3 mm 6 mps 758 mmHg 86%
    21:00 +8°C° 0.3 mm 6 mps 758 mmHg 87%
    22:00 +8°C° 0.3 mm 6 mps 758 mmHg 88%
    23:00 +8°C° 0.1 mm 6 mps 759 mmHg 89%

    23 October, Monday

    Time Temperature Precipitation Wind Pressure Humidity
    00:00 +8°C° 0.1 mm 6 mps 759 mmHg 90%
    01:00 +8°C° 0.1 mm 5 mps 759 mmHg 91%
    02:00 +8°C° 0 mm 5 mps 759 mmHg 92%
    03:00 +8°C° 0 mm 5 mps 759 mmHg 92%
    04:00 +8°C° 0 mm 4 mps 760 mmHg 93%
    05:00 +10°C° 0.1 mm 4 mps 760 mmHg 93%
    06:00 +10°C° 0.1 mm 4 mps 761 mmHg 92%
    07:00 +10°C° 0.1 mm 4 mps 761 mmHg 92%
    08:00 +9°C° 0 mm 5 mps 762 mmHg 89%
    09:00 +10°C° 0 mm 5 mps 762 mmHg 86%
    10:00 +12°C° 0 mm 5 mps 763 mmHg 83%
    11:00 +13°C° 0 mm 5 mps 763 mmHg 80%
    12:00 +13°C° 0 mm 5 mps 763 mmHg 77%
    13:00 +14°C° 0 mm 5 mps 763 mmHg 74%
    14:00 +13°C° 0.1 mm 5 mps 764 mmHg 78%
    15:00 +13°C° 0.1 mm 5 mps 764 mmHg 81%
    16:00 +12°C° 0.1 mm 5 mps 764 mmHg 85%
    17:00 +12°C° 0.1 mm 5 mps 764 mmHg 87%
    18:00 +12°C° 0.1 mm 5 mps 764 mmHg 89%
    19:00 +12°C° 0.1 mm 5 mps 764 mmHg 91%
    20:00 +12°C° 0.1 mm 5 mps 764 mmHg 91%
    21:00 +11°C° 0.1 mm 6 mps 764 mmHg 91%
    22:00 +11°C° 0.1 mm 6 mps 764 mmHg 91%
    23:00 +11°C° 0.2 mm 6 mps 764 mmHg 91%

    24 October, Tuesday

    Time Temperature Precipitation Wind Pressure Humidity
    00:00 +11°C° 0.2 mm 6 mps 764 mmHg 91%
    01:00 +11°C° 0.2 mm 6 mps 764 mmHg 92%
    02:00 +11°C° 0.2 mm 6 mps 764 mmHg 92%
    03:00 +11°C° 0.2 mm 6 mps 764 mmHg 92%
    04:00 +11°C° 0.2 mm 6 mps 764 mmHg 92%
    05:00 +11°C° 0.2 mm 6 mps 764 mmHg 93%
    06:00 +11°C° 0.2 mm 6 mps 764 mmHg 93%
    07:00 +11°C° 0.2 mm 6 mps 764 mmHg 93%
    08:00 +13°C° 0.2 mm 6 mps 764 mmHg 93%
    09:00 +13°C° 0.2 mm 6 mps 764 mmHg 92%
    10:00 +13°C° 0.2 mm 6 mps 764 mmHg 92%
    11:00 +13°C° 0 mm 6 mps 764 mmHg 91%
    12:00 +14°C° 0 mm 6 mps 765 mmHg 89%
    13:00 +14°C° 0 mm 6 mps 765 mmHg 88%
    14:00 +14°C° 0 mm 6 mps 764 mmHg 88%
    15:00 +14°C° 0 mm 5 mps 764 mmHg 87%
    16:00 +15°C° 0 mm 5 mps 764 mmHg 86%
    17:00 +14°C° 0 mm 5 mps 764 mmHg 87%
    18:00 +14°C° 0 mm 5 mps 764 mmHg 88%
    19:00 +13°C° 0 mm 4 mps 765 mmHg 88%
    20:00 +13°C° 0 mm 4 mps 765 mmHg 89%
    21:00 +12°C° 0 mm 4 mps 765 mmHg 89%
    22:00 +12°C° 0 mm 4 mps 765 mmHg 89%
    23:00 +12°C° 0 mm 4 mps 765 mmHg 88%
    Show more